Regional Weather Roundup
Issued by NWS Columbia, SC

Home | Current Version | Previous Version | Text Only | Print | Product List | Glossary On
Versions: 1 2 3 4 5 6 7 8 9 10 11 12 13 14 15 16 17 18 19 20 21 22 23 24 25 26 27 28 29 30 31 32 33 34 35 36 37 38 39 40 41 42 43 44 45 46 47 48 49 50
000
ASUS42 KCAE 251810
RWRCAE
REGIONAL WEATHER ROUNDUP
NATIONAL WEATHER SERVICE COLUMBIA SC
200 PM EDT MON SEP 25 2017

NOTE: "FAIR" INDICATES FEW OR NO CLOUDS BELOW 12,000 FEET WITH NO
SIGNIFICANT WEATHER AND/OR OBSTRUCTIONS TO VISIBILITY.

NOT ALL STATIONS ARE QUALITY CONTROLLED BY THE NATIONAL
WEATHER SERVICE. USE DATA WITH CAUTION...ESPECIALLY
DEWPOINT OBSERVATIONS.

SCZ001>056-GAZ040-063>065-077-251900-
...UPSTATE SOUTH CAROLINA...

CITY           SKY/WX    TMP DP  RH WIND       PRES   REMARKS
ANDERSON       MOSUNNY   84  62  47 VRB6      30.01F
6HR MIN TEMP:  68; 6HR MAX TEMP:  84;

LIBERTY        PTCLDY    85  63  47 N8G20     30.02F
6HR MIN TEMP:  60; 6HR MAX TEMP:  85;

SPARTANBURG    MOSUNNY   82  61  47 E9        30.00F
CLEMSON        MOSUNNY   83  64  52 E9        30.03F
6HR MIN TEMP:  68; 6HR MAX TEMP:  84;

GREENVILLE     SUNNY     85  63  47 NE12      30.03F
6HR MIN TEMP:  70; 6HR MAX TEMP:  85;

GREENWOOD      SUNNY     83  64  52 NE8       30.00F
6HR MIN TEMP:  64; 6HR MAX TEMP:  85;

GREER          MOSUNNY   83  63  50 N13G18    30.03F
6HR MIN TEMP:  68; 6HR MAX TEMP:  84;

ROCK HILL        N/A    N/A N/A N/A MISG      29.99F
CHESTER        CLOUDY    81  61  50 NE13G22   29.99F
LAURENS        PTCLDY    84  64  51 N9G16     29.99F


...CENTRAL SOUTH CAROLINA...

CITY           SKY/WX    TMP DP  RH WIND       PRES   REMARKS
COLUMBIA APT   CLOUDY    86  63  45 N13       29.93F
6HR MIN TEMP:  71; 6HR MAX TEMP:  86;

COLUMBIA OWENS CLOUDY    85  61  44 VRB6      29.94F
6HR MIN TEMP:  70; 6HR MAX TEMP:  85;

MCENTIRE ANGB  PTSUNNY   83  63  50 N7        29.93F
6HR MIN TEMP:  69; 6HR MAX TEMP:  83;

ORANGEBURG     CLOUDY    82  61  48 NE8       29.93F
6HR MIN TEMP:  69; 6HR MAX TEMP:  83;

SUMTER SHAW    PTSUNNY   86  63  47 NE12      29.90F
6HR MIN TEMP:  70; 6HR MAX TEMP:  86;

NEWBERRY       PTCLDY    82  63  51 N10G17    29.99F
AIKEN          FAIR      82  61  47 N10       29.99F
BARNWELL       FAIR      86  64  48 N13       29.93F
MANNING        FAIR      81  63  54 MISG      29.92F
CAMDEN         FAIR      84  63  48 NE12      29.94F
LANCASTER      PTCLDY    84  63  48 N8        29.97F
WINNSBORO      CLOUDY    81  63  54 N8        29.96F


...EASTERN AND COASTAL SOUTH CAROLINA...

CITY           SKY/WX    TMP DP  RH WIND       PRES   REMARKS
MYRTLE BEACH   CLOUDY    75  68  78 N14       29.91F
6HR MIN TEMP:  69; 6HR MAX TEMP:  75;

N MYRTLE BCH   MOSUNNY   79  69  71 N10G17    29.89F
6HR MIN TEMP:  70; 6HR MAX TEMP:  78;

CONWAY         CLOUDY    72  68  88 N7        29.93F
MARION           N/A     73  64  73 N8        29.95F
HARTSVILLE     FAIR      86  63  45 NE12G17   29.94F
FLORENCE       MOSUNNY   81  67  62 E14       29.94F
6HR MIN TEMP:  67; 6HR MAX TEMP:  82;

DARLINGTON     PTSUNNY   83  67  58 NE12      29.94F
6HR MIN TEMP:  66; 6HR MAX TEMP:  83;

CHARLESTON APT PTSUNNY   81  69  67 NE6       29.90F
6HR MIN TEMP:  70; 6HR MAX TEMP:  83;

MOUNT PLEASANT FAIR      79  70  73 N6        29.90F
WALTERBORO     CLOUDY    81  66  61 NW9       29.93F
BEAUFORT       PTSUNNY   85  68  56 N8        29.90F
6HR MIN TEMP:  71; 6HR MAX TEMP:  86;



...EASTERN GEORGIA...

CITY           SKY/WX    TMP DP  RH WIND       PRES   REMARKS
AUGUSTA BUSH F SUNNY     86  57  37 E8        29.95F
6HR MIN TEMP:  69; 6HR MAX TEMP:  86;

AUGUSTA DANIEL SUNNY     88  58  36 MISG      29.96F
6HR MIN TEMP:  70; 6HR MAX TEMP:  88;

THOMSON        SUNNY     83  64  51 NE5       30.02F
6HR MIN TEMP:  65; 6HR MAX TEMP:  84;

WASHINGTON     FAIR     N/A N/A N/A E5        29.99F
CLAXTON        FAIR      87  66  49 NW5       29.92F
6HR MIN TEMP:  68; 6HR MAX TEMP:  87;

SYLVANIA       CLEAR     85  70  59 NE6       29.94F
6HR MIN TEMP:  70; 6HR MAX TEMP:  85;

STATESBORO     SUNNY     85  61  45 N3        29.93F
6HR MIN TEMP:  69; 6HR MAX TEMP:  86;

SAVANNAH       MOSUNNY   87  66  49 E6        29.91F
6HR MIN TEMP:  70; 6HR MAX TEMP:  87;



...SOUTHERN NORTH CAROLINA...

CITY           SKY/WX    TMP DP  RH WIND       PRES   REMARKS
CHARLOTTE      CLOUDY    83  65  54 N10       30.00F
6HR MIN TEMP:  66; 6HR MAX TEMP:  85;

MONROE         PTSUNNY   84  64  50 NE12      29.97F
6HR MIN TEMP:  67; 6HR MAX TEMP:  84;

RUTHERFORDTON  MOSUNNY   83  64  51 N8        30.05F
ASHEVILLE      SUNNY     81  56  42 N7        30.09F
6HR MIN TEMP:  60; 6HR MAX TEMP:  81;


$$



USA.gov is the U.S. government's official web portal to all federal, state and local government web resources and services.